Temperature
19 19 19 19 19 19 18 18 18 18 18 18 19 19 18 18 18 18 18 18 18 18 18 18 17 17 17 17 17 17 17 16 16 16 16 16 16 16
18 18 18 18 18 18 18 18 18 18 18 18 18 18 18 18 18 18 18 18 17 17 17 17 17 17 17 17 17 16 16 16 16 16 16 16 16 15
18 18 18 18 18 18 18 18 18 18 18 18 18 18 18 18 18 18 17 17 17 17 17 17 17 17 17 17 17 16 16 16 16 16 16 16 16 15
18 18 18 18 18 18 18 18 18 18 18 18 18 18 18 18 18 17 17 17 17 17 17 17 17 17 17 17 16 16 16 16 16 16 15 15 15 15
18 18 18 18 18 18 18 18 18 17 17 17 17 17 17 17 17 17 17 17 16 16 17 17 17 17 16 16 16 16 16 16 16 15 15 15 15 15
17 17 17 17 17 17 17 17 17 17 17 17 17 17 17 17 17 16 16 16 16 16 16 16 16 16 16 16 16 16 16 16 15 15 15 15 15 15
17 17 17 17 17 17 17 17 17 17 16 16 16 16 16 16 16 16 16 16 16 16 16 16 16 16 16 16 16 15 15 15 15 15 15 15 14 14
17 17 17 16 17 17 17 16 16 16 16 16 16 16 16 16 16 15 15 15 15 15 15 15 15 15 15 15 15 15 15 15 15 15 15 14 14 14
16 16 16 16 16 16 16 16 16 16 16 16 15 16 15 15 15 15 15 15 15 15 15 14 15 15 15 15 15 15 15 15 14 14 14 14 14 14
16 16 16 16 16 16 16 15 15 15 15 15 15 15 15 15 15 15 14 14 14 14 14 14 14 14 14 14 14 14 14 14 14 14 14 13 13 13
16 15 15 15 15 15 15 15 15 15 15 15 15 15 15 14 14 14 14 14 13 14 14 13 14 14 14 14 14 14 14 13 13 13 13 13 13 13
15 15 15 15 15 15 15 14 14 14 14 14 14 14 14 14 14 14 13 13 13 13 13 13 13 13 13 13 13 13 13 13 13 13 13 13 13 12
15 15 15 15 15 14 14 14 14 14 14 14 14 14 13 13 13 13 13 13 13 13 13 13 13 13 13 12 13 13 13 13 13 13 12 12 12 12
14 14 14 14 14 14 14 14 14 13 13 13 13 13 13 13 13 13 13 13 13 13 13 13 12 12 12 12 12 12 12 12 12 12 12 12 12 12
14 14 14 14 14 13 13 13 13 13 13 12 12 12 12 12 12 12 12 12 12 12 12 12 12 12 12 12 11 12 12 12 12 12 12 12 12 11
13 13 13 13 13 13 13 13 13 12 12 12 12 12 12 12 12 12 12 12 12 12 12 12 12 12 11 11 11 11 11 11 11 11 11 11 11 11
13 13 13 13 12 12 12 12 12 12 12 12 12 12 12 11 11 11 11 11 11 11 11 11 11 11 11 11 11 11 11 11 11 11 11 11 11 11
12 12 12 12 12 12 12 12 12 11 11 11 11 11 11 11 11 11 11 11 11 11 11 11 11 11 11 11 11 11 11 11 11 11 10 10 10 10
12 12 11 11 11 11 11 11 11 11 11 11 11 10 10 10 10 10 10 10 10 10 10 10 10 10 10 10 10 11 11 10 10 10 10 10 10 10
11 11 11 11 11 11 10 10 10 10 10 10 10 10 10 10 10 10 10 10 10 10 10 10 10 10 10 10 10 10 10 10 10 10 10 10 10 10
11 11 10 10 10 10 10 10 10 9 9 9 9 9 9 9 9 9 9 9 9 9 9 9 9 9 9 9 9 9 10 10 10 10 9 9 9 9
10 10 10 10 10 10 9 9 9 9 9 9 9 9 9 9 9 9 9 9 9 9 9 9 9 9 9 9 9 9 9 9 9 9 9 9 9 9
10 10 10 9 9 9 9 9 9 9 9 9 9 8 8 8 8 8 8 8 8 9 9 8 9 9 9 9 8 9 9 9 9 9 9 9 9 9
Wind_Speed
6 6 5 4 4 4 3 3 3 4 4 3 2 2 2 3 6 7 7 9 11 11 11 10 10 10 10 10 10 10 10 10 10 11 11 11 11 10
5 5 5 4 4 3 4 4 3 4 4 3 3 3 2 2 5 5 6 9 10 11 11 11 10 10 10 11 10 10 9 9 9 9 9 9 9 9
6 5 5 5 4 4 4 4 4 3 4 4 3 2 3 2 3 5 6 7 8 12 13 12 11 11 10 10 10 10 9 9 9 9 9 9 8 8
5 4 4 5 5 4 4 5 4 4 4 5 4 3 4 4 4 4 4 5 5 9 12 13 12 12 11 11 10 10 10 10 9 9 9 9 8 7
3 3 4 4 4 4 4 5 5 5 4 4 5 3 3 3 3 3 3 2 4 5 9 10 11 11 11 11 11 10 10 10 10 10 10 9 9 8
3 3 3 4 4 5 5 5 5 4 4 4 4 3 3 3 2 3 3 3 3 3 3 6 8 10 10 10 11 11 10 10 10 10 10 9 9 9
3 3 3 4 4 4 4 3 3 4 4 4 4 3 3 2 2 3 3 3 3 2 2 3 4 5 7 9 10 10 11 11 11 10 10 9 9 9
3 3 4 4 5 5 5 5 4 5 5 4 4 4 4 3 2 3 3 3 3 2 2 4 4 4 4 6 8 11 12 12 11 11 10 10 9 9
3 3 4 4 2 3 3 5 5 6 6 5 5 5 5 4 4 4 3 3 3 2 2 4 3 4 4 7 11 12 12 12 12 12 11 11 9 9
3 4 4 3 3 2 3 4 4 4 5 5 5 5 4 3 4 4 4 3 3 3 3 4 4 4 3 4 10 13 12 12 12 13 12 11 10 9
4 3 3 3 3 3 3 3 3 4 4 3 4 4 4 4 3 2 3 3 4 4 3 3 3 2 2 3 6 11 12 13 13 13 13 12 11 8
3 2 1 2 2 2 2 3 4 4 3 3 3 3 3 4 4 4 4 4 4 3 3 2 3 2 2 2 2 5 7 9 11 12 12 12 11 7
3 2 2 2 1 2 3 4 5 4 3 4 3 2 2 2 2 2 3 3 4 4 3 2 2 3 3 2 2 4 5 5 7 8 11 12 12 9
2 1 1 1 2 3 3 4 5 4 3 3 2 2 2 2 2 2 3 3 3 4 3 2 2 3 3 3 2 2 3 5 5 5 7 10 11 12
2 0 1 3 3 4 5 6 4 3 2 2 3 2 2 2 2 2 2 2 4 5 5 5 4 4 3 4 3 3 3 4 5 5 5 6 6 7
1 0 2 4 4 4 3 3 3 3 3 2 2 2 2 2 2 2 2 2 3 4 4 5 4 5 5 5 5 4 4 3 4 4 4 4 5 7
0 1 1 1 1 2 1 1 1 1 1 2 2 2 2 2 2 2 2 3 3 3 3 3 4 5 5 5 4 4 3 3 3 4 4 5 5 6
1 2 2 2 2 2 1 1 1 1 1 2 2 2 2 2 2 2 2 2 3 3 2 2 2 2 3 4 4 4 3 3 3 3 3 4 5 4
1 3 2 2 2 2 1 1 1 1 1 2 2 3 3 3 3 3 3 3 3 3 3 2 2 3 4 5 4 5 5 4 3 4 4 4 5 5
3 3 2 1 1 1 1 1 1 1 1 2 2 3 3 3 4 3 3 4 4 4 3 3 2 2 4 5 4 4 6 5 4 5 5 4 3 3
2 1 1 1 1 1 1 1 2 2 1 2 2 3 3 3 4 4 4 5 5 4 4 3 4 5 4 4 4 3 3 4 5 4 4 3 3 3
2 1 1 2 1 1 1 1 2 2 2 2 2 3 3 3 4 4 4 4 4 4 4 3 3 3 3 4 5 4 4 3 4 5 6 5 4 5
2 1 1 2 2 1 1 2 2 2 2 2 2 3 3 4 4 4 4 4 4 4 3 3 3 3 3 4 4 4 5 4 3 2 3 6 9 10
Wind_Direction
229 230 236 246 250 249 240 226 221 246 260 256 240 206 186 174 175 187 185 192 195 200 206 210 214 216 218 217 218 219 219 218 220 220 221 221 221 223
229 233 238 247 251 251 247 241 227 228 249 252 244 227 217 215 192 191 187 189 199 203 205 208 212 215 219 219 220 216 212 210 211 212 212 213 216 222
233 231 233 241 252 257 255 253 245 232 243 261 258 231 223 224 195 207 200 192 205 210 208 208 209 211 214 215 213 209 205 204 204 204 205 205 208 215
227 231 238 244 248 258 262 261 253 236 231 246 254 240 222 213 206 219 216 213 210 210 207 207 207 209 209 208 208 207 205 203 204 203 203 200 202 209
220 228 240 246 249 254 253 261 264 258 239 238 248 246 234 223 206 225 233 227 241 215 207 211 210 208 208 207 206 205 204 203 203 204 203 202 203 206
224 226 242 248 247 247 246 253 262 269 263 257 254 255 242 227 200 213 232 231 246 231 202 212 210 207 206 207 205 203 201 199 199 201 203 203 202 203
226 215 230 235 231 238 248 249 256 263 258 252 248 255 252 224 221 226 235 235 242 225 212 212 196 197 203 212 209 207 204 201 199 198 198 201 203 204
234 228 232 231 228 221 231 239 240 242 254 254 245 239 238 227 228 244 246 246 250 226 216 237 212 212 205 198 204 203 204 203 203 202 201 202 206 208
241 247 251 256 250 245 235 231 242 243 236 244 249 245 242 229 223 237 244 253 256 246 237 251 228 222 213 206 201 201 202 202 204 204 203 203 207 213
239 236 235 254 271 275 271 251 248 256 251 241 247 250 244 229 223 232 241 247 256 255 230 254 246 239 241 202 203 199 199 200 202 203 204 205 208 215
246 248 237 233 260 267 265 262 264 275 290 284 260 247 228 217 218 237 245 248 265 261 228 242 258 257 244 235 203 198 199 201 202 202 205 207 208 214
234 225 213 217 249 283 262 265 264 270 281 285 276 262 234 222 212 219 236 249 262 272 246 240 264 266 266 237 189 192 200 206 206 208 208 208 207 210
244 227 180 152 188 251 251 253 259 272 278 264 254 243 230 224 216 223 236 243 251 260 270 258 272 273 258 257 244 209 199 198 198 210 211 210 208 204
256 185 158 196 265 270 254 245 259 270 265 261 254 251 247 243 240 230 232 234 242 251 258 261 269 265 270 273 266 236 219 201 195 203 200 205 213 217
290 144 196 235 261 263 246 244 243 246 247 253 255 249 238 236 238 236 244 253 253 252 250 242 248 255 259 258 258 245 245 233 213 207 198 197 202 206
299 287 239 245 254 254 255 239 234 236 233 246 254 260 253 232 234 242 254 254 262 259 246 240 242 236 242 246 241 242 239 231 221 210 201 212 214 212
58 272 267 258 244 245 242 251 257 263 266 267 270 268 267 257 257 250 247 256 266 263 253 246 241 241 232 234 239 239 236 239 229 221 215 226 225 217
171 248 258 266 269 269 278 276 265 284 294 291 291 289 281 270 270 272 272 269 271 277 275 268 259 271 280 269 238 235 235 236 239 231 234 236 241 229
213 247 244 248 271 287 307 322 314 314 316 315 315 308 303 298 297 294 289 284 278 275 269 268 269 251 260 265 262 233 230 234 234 237 233 234 242 233
224 236 245 265 277 302 315 313 315 311 306 300 304 309 310 304 298 295 293 287 281 278 277 271 263 259 263 265 267 268 238 229 227 236 239 246 253 239
262 271 271 281 311 323 314 312 305 297 301 299 299 301 300 298 294 289 288 290 283 280 275 270 263 257 266 270 267 266 260 234 227 233 232 240 250 244
254 252 261 273 282 285 286 284 286 285 283 282 293 294 294 292 291 291 291 289 279 274 279 279 274 269 265 269 275 274 271 264 253 238 227 234 227 228
242 249 252 245 244 249 263 273 283 286 289 295 300 298 299 296 291 288 288 286 286 285 288 286 282 275 267 261 271 274 271 266 254 247 259 255 248 245
Height
1531 1532 1532 1533 1533 1533 1534 1534 1535 1534 1533 1533 1533 1533 1533 1533 1532 1532 1531 1531 1532 1532 1532 1532 1532 1531 1532 1532 1532 1532 1532 1532 1533 1533 1533 1534 1535 1536
1527 1528 1528 1529 1530 1530 1530 1531 1531 1531 1530 1529 1529 1529 1529 1529 1529 1529 1528 1528 1528 1528 1528 1528 1528 1528 1528 1528 1528 1528 1529 1529 1529 1529 1530 1531 1531 1532
1523 1524 1525 1526 1526 1526 1527 1527 1527 1527 1526 1525 1526 1526 1526 1526 1525 1526 1525 1525 1525 1525 1525 1525 1525 1525 1525 1525 1525 1525 1525 1525 1525 1525 1526 1527 1527 1528
1520 1520 1521 1522 1522 1523 1523 1523 1523 1524 1523 1522 1521 1522 1522 1522 1522 1522 1522 1521 1521 1521 1521 1521 1521 1521 1521 1521 1521 1521 1521 1521 1521 1522 1522 1523 1523 1524
1516 1517 1517 1518 1518 1518 1519 1519 1519 1519 1519 1518 1517 1518 1518 1518 1517 1518 1518 1518 1518 1517 1517 1517 1517 1517 1517 1517 1517 1517 1517 1517 1517 1518 1518 1519 1519 1520
1512 1513 1514 1514 1514 1515 1514 1515 1515 1515 1514 1514 1513 1513 1513 1513 1514 1513 1513 1513 1514 1514 1513 1513 1513 1513 1513 1513 1513 1513 1513 1513 1513 1514 1514 1514 1515 1515
1508 1509 1509 1510 1510 1510 1510 1510 1510 1510 1510 1509 1509 1509 1509 1509 1509 1509 1510 1509 1509 1509 1509 1509 1508 1508 1508 1508 1508 1508 1508 1509 1509 1510 1510 1510 1511 1511
1504 1505 1505 1506 1506 1506 1506 1506 1506 1506 1505 1505 1505 1504 1504 1505 1505 1505 1506 1506 1505 1506 1505 1504 1504 1504 1504 1503 1504 1504 1504 1505 1505 1506 1506 1506 1507 1507
1501 1501 1502 1502 1502 1501 1501 1501 1501 1501 1501 1501 1500 1500 1500 1500 1501 1501 1501 1501 1501 1502 1502 1500 1499 1499 1499 1499 1499 1500 1500 1500 1501 1501 1502 1502 1502 1503
1497 1497 1498 1497 1497 1497 1497 1496 1496 1497 1497 1496 1496 1496 1496 1496 1496 1497 1497 1497 1497 1497 1496 1496 1495 1495 1495 1495 1495 1495 1496 1496 1497 1497 1498 1498 1498 1499
1493 1493 1493 1493 1493 1493 1493 1492 1491 1492 1492 1492 1492 1492 1492 1492 1492 1492 1492 1492 1491 1492 1492 1491 1490 1491 1490 1490 1490 1491 1491 1492 1493 1493 1493 1494 1494 1494
1488 1489 1489 1489 1489 1489 1489 1488 1487 1487 1487 1487 1487 1487 1487 1487 1487 1488 1488 1487 1487 1486 1487 1487 1486 1486 1486 1486 1486 1487 1487 1487 1488 1489 1489 1490 1490 1490
1484 1484 1485 1484 1484 1484 1484 1484 1483 1483 1483 1482 1482 1482 1482 1482 1482 1483 1483 1483 1482 1482 1483 1483 1482 1483 1483 1482 1482 1482 1483 1483 1483 1484 1485 1485 1486 1486
1480 1480 1480 1481 1481 1480 1480 1480 1480 1479 1479 1478 1478 1478 1478 1478 1478 1478 1479 1478 1478 1478 1479 1479 1478 1478 1478 1478 1477 1477 1478 1478 1479 1479 1480 1481 1481 1481
1477 1477 1477 1477 1477 1476 1476 1476 1476 1475 1475 1475 1475 1475 1475 1475 1475 1475 1475 1474 1474 1474 1474 1474 1474 1474 1474 1473 1473 1473 1473 1474 1475 1475 1475 1476 1476 1476
1474 1474 1474 1474 1473 1473 1473 1473 1472 1472 1472 1472 1472 1472 1472 1472 1471 1471 1470 1470 1470 1469 1469 1469 1469 1469 1468 1468 1469 1468 1469 1469 1470 1471 1471 1471 1471 1471
1471 1470 1470 1470 1470 1470 1470 1470 1470 1470 1470 1470 1469 1469 1469 1469 1468 1468 1467 1467 1466 1465 1464 1464 1464 1464 1464 1464 1463 1463 1464 1465 1465 1466 1466 1466 1466 1466
1467 1466 1466 1467 1467 1467 1467 1467 1467 1467 1467 1467 1467 1467 1466 1466 1465 1465 1464 1464 1463 1461 1460 1460 1459 1459 1459 1459 1459 1458 1459 1459 1460 1461 1461 1461 1461 1461
1465 1464 1464 1465 1465 1465 1465 1465 1465 1465 1465 1464 1464 1464 1463 1463 1462 1461 1460 1460 1459 1458 1457 1456 1456 1455 1454 1453 1453 1454 1454 1454 1455 1455 1456 1456 1456 1456
1462 1462 1462 1463 1463 1463 1463 1463 1462 1462 1462 1462 1461 1461 1460 1460 1459 1458 1457 1456 1455 1454 1453 1453 1452 1451 1451 1450 1448 1449 1450 1450 1450 1450 1450 1451 1451 1451
1460 1460 1460 1460 1460 1460 1460 1460 1460 1460 1459 1459 1458 1458 1457 1456 1455 1454 1453 1452 1451 1450 1449 1448 1447 1447 1447 1446 1445 1444 1445 1445 1445 1445 1445 1445 1445 1445
1458 1458 1457 1457 1457 1457 1457 1457 1457 1457 1457 1456 1455 1455 1454 1453 1452 1450 1449 1448 1447 1446 1445 1444 1444 1443 1442 1442 1441 1440 1440 1440 1440 1440 1441 1441 1440 1439
1456 1455 1455 1455 1454 1454 1454 1454 1454 1453 1453 1452 1452 1451 1450 1449 1448 1447 1446 1445 1444 1443 1442 1441 1440 1439 1439 1438 1437 1437 1436 1436 1435 1435 1435 1435 1435 1436